FW8899 Weather Reports


time (UTC)temp
F
wind
direction
speed
knots
gust
knots
rain 1hr
in
rain 24hr
in
rain mn
in
humidity
%
barometer
mb
20260502184257 73 90 1.7 6.1 0.00 0.00 0.00 42 1023.2
20260502183754 72 109 3.5 6.1 0.00 0.00 0.00 48 1023.4
20260502183250 71 354 2.6 7.8 0.00 0.00 0.00 43 1023.3
20260502182745 72 67 3.5 5.2 0.00 0.00 0.00 41 1023.4
20260502182241 71 100 0.0 6.1 0.00 0.00 0.00 39 1023.2
20260502181738 70 134 0.0 5.2 0.00 0.00 0.00 45 1023.7
20260502181237 69 90 1.7 5.2 0.00 0.00 0.00 43 1023.9
20260502180734 72 128 2.6 5.2 0.00 0.00 0.00 39 1023.8
20260502180232 71 92 3.5 5.2 0.00 0.00 0.00 41 1023.8
20260502170156 70 54 7.8 9.6 0.00 0.00 0.00 42 1024.1
20260502164142 69 102 2.6 5.2 0.00 0.00 0.00 48 1024.0
20260502163638 68 115 1.7 3.5 0.00 0.00 0.00 49 1024.1
20260502163135 68 61 4.3 7.8 0.00 0.00 0.00 45 1024.3
20260502162632 70 80 1.7 7.8 0.00 0.00 0.00 46 1024.1
20260502162129 69 86 0.9 1.7 0.00 0.00 0.00 47 1024.3
20260502161626 68 93 1.7 5.2 0.00 0.00 0.00 49 1024.2
20260502161123 69 56 2.6 3.5 0.00 0.00 0.00 50 1024.2
20260502160621 68 100 0.0 3.5 0.00 0.00 0.00 49 1024.0
20260502160120 68 124 3.5 5.2 0.00 0.00 0.00 44 1024.1
20260502152034 64 89 1.7 6.1 0.00 0.00 0.00 53 1023.7
20260502151531 64 101 2.6 7.8 0.00 0.00 0.00 56 1023.9
20260502151028 64 89 4.3 7.8 0.00 0.00 0.00 55 1024.0
20260502150526 65 101 2.6 5.2 0.00 0.00 0.00 63 1023.9
20260502130410 56 88 1.7 5.2 0.00 0.00 0.00 87 1023.0
20260502123353 52 98 0.0 0.0 0.00 0.00 0.00 96 1022.5
20260502122850 51 99 0.0 1.7 0.00 0.00 0.00 96 1022.5
20260502122345 51 100 0.0 0.0 0.00 0.00 0.00 96 1022.2
20260502121844 50 99 0.0 0.0 0.00 0.00 0.00 96 1022.1
20260502121341 50 99 0.0 1.7 0.00 0.00 0.00 96 1021.7
20260502120839 50 96 0.0 0.0 0.00 0.00 0.00 96 1021.9
20260502120334 50 101 0.0 0.0 0.00 0.00 0.00 96 1021.7
20260502115832 50 100 0.0 0.0 0.00 0.00 0.00 96 1021.6
20260502115329 50 99 0.0 0.0 0.00 0.00 0.00 96 1021.6
20260502114826 50 101 0.0 0.0 0.00 0.00 0.00 96 1021.6
20260502114323 50 101 0.0 0.0 0.00 0.00 0.00 96 1021.3
20260502113819 50 102 0.0 0.0 0.00 0.00 0.00 96 1021.3
20260502113317 50 100 0.0 0.0 0.00 0.00 0.00 96 1021.4
20260502112816 50 103 0.0 1.7 0.00 0.00 0.00 96 1021.4
20260502112312 51 102 0.0 0.0 0.00 0.00 0.00 96 1021.2
20260502111810 51 101 0.0 0.0 0.00 0.00 0.00 96 1021.1
20260502111307 51 97 0.0 0.0 0.00 0.00 0.00 96 1020.9
20260502110804 51 98 0.0 0.0 0.00 0.00 0.00 96 1021.0
20260502110302 51 95 0.0 0.0 0.00 0.00 0.00 96 1021.1
20260502105800 51 96 0.0 1.7 0.00 0.00 0.00 96 1020.9
20260502105256 51 93 0.0 0.0 0.00 0.00 0.00 96 1020.5
20260502104754 51 100 0.0 0.0 0.00 0.00 0.00 96 1020.5
20260502104251 52 90 0.9 1.7 0.00 0.00 0.00 96 1020.5
20260502103748 52 96 0.0 0.0 0.00 0.00 0.00 96 1020.5
20260502103246 52 104 0.0 1.7 0.00 0.00 0.00 96 1020.5
20260502102743 52 99 0.0 0.0 0.00 0.00 0.00 96 1020.6
20260502102239 52 95 0.0 1.7 0.00 0.00 0.00 96 1020.4
20260502101738 52 99 0.0 0.0 0.00 0.00 0.00 96 1020.3
20260502101235 52 100 0.0 0.0 0.00 0.00 0.00 96 1020.4
20260502100733 52 100 0.0 1.7 0.00 0.00 0.00 96 1020.2
20260502100232 53 100 0.0 0.0 0.00 0.00 0.00 96 1020.2
20260502091206 53 101 0.0 0.0 0.00 0.00 0.00 96 1020.2
20260502090703 53 98 0.0 0.0 0.00 0.00 0.00 96 1020.1
20260502090200 53 98 0.0 0.0 0.00 0.00 0.00 96 1020.1
20260502071055 54 92 0.0 0.0 0.00 0.00 0.00 96 1019.9
20260502070553 54 96 0.0 0.0 0.00 0.00 0.00 96 1019.7
20260502070051 54 96 0.0 0.0 0.00 0.00 0.00 96 1020.1
20260502065549 54 98 0.0 0.0 0.00 0.00 0.00 96 1020.1
20260502065047 54 98 0.0 0.0 0.00 0.00 0.00 96 1020.1
20260502064545 54 96 0.0 0.0 0.00 0.00 0.00 96 1020.4
20260502064042 54 98 0.0 0.0 0.00 0.00 0.00 96 1020.3
20260502063539 54 99 0.0 1.7 0.00 0.00 0.00 96 1020.2
20260502063037 54 98 0.0 0.0 0.00 0.00 0.00 96 1020.4
20260502062534 54 100 0.0 0.0 0.00 0.00 0.00 96 1020.5
20260502062032 54 101 0.0 0.0 0.00 0.00 0.00 96 1020.5
20260502061530 54 100 0.0 0.0 0.00 0.00 0.00 96 1020.7
20260502061027 54 100 0.0 0.0 0.00 0.00 0.00 96 1020.7
20260502060522 54 97 0.0 0.0 0.00 0.00 0.00 96 1020.5
20260502060019 54 100 0.0 0.0 0.00 0.00 0.00 96 1020.4
20260502055516 54 99 0.0 0.0 0.00 0.00 0.00 96 1020.4
20260502055015 54 97 0.0 0.0 0.00 0.00 0.00 96 1020.7
20260502054513 54 98 0.0 0.0 0.00 0.00 0.00 96 1020.7
20260502054010 54 99 0.0 0.0 0.00 0.00 0.00 96 1020.5
20260502053507 54 99 0.0 0.0 0.00 0.00 0.00 96 1020.7
20260502053005 54 95 0.0 0.0 0.00 0.00 0.00 96 1020.3
20260502052503 54 98 0.0 0.0 0.00 0.00 0.00 96 1020.4
20260502052001 54 97 0.0 0.0 0.00 0.00 0.00 96 1020.3
20260502051459 54 93 0.0 0.0 0.00 0.00 0.00 96 1020.2
20260502050955 54 97 0.0 0.0 0.00 0.00 0.00 96 1020.2
20260502050452 54 95 0.0 0.0 0.00 0.00 0.00 96 1020.1
20260502045949 55 95 0.0 0.0 0.00 0.45 0.45 96 1019.9
20260502045446 55 90 0.0 1.7 0.00 0.45 0.45 96 1020.1
20260502044943 54 88 0.0 1.7 0.00 0.45 0.45 96 1020.3
20260502044438 54 93 0.0 1.7 0.00 0.45 0.45 96 1020.2
20260502043936 54 93 0.0 0.0 0.00 0.45 0.45 96 1020.1
20260502043434 54 102 0.0 0.0 0.00 0.45 0.45 96 1020.3
20260502042933 55 102 0.0 0.0 0.00 0.45 0.45 96 1020.2
20260502042430 55 104 0.0 1.7 0.00 0.45 0.45 96 1020.0
20260502041927 55 100 0.0 0.0 0.00 0.45 0.45 96 1020.3
20260502041425 55 94 0.0 0.0 0.00 0.45 0.45 96 1020.2
20260502040922 55 100 0.0 0.0 0.00 0.45 0.45 96 1020.1
20260502040418 55 101 0.0 0.0 0.00 0.45 0.45 96 1020.2
20260502035915 54 96 0.0 0.0 0.00 0.45 0.45 96 1019.9
20260502035411 55 97 0.0 0.0 0.00 0.45 0.45 96 1020.1
20260502034909 55 101 0.0 0.0 0.00 0.45 0.45 96 1020.0
20260502034408 55 107 0.0 0.0 0.00 0.45 0.45 96 1019.8
20260502033905 55 98 0.0 0.0 0.00 0.45 0.45 96 1019.6
20260502033403 55 96 0.0 0.0 0.00 0.45 0.45 96 1019.8
20260502032859 55 97 0.0 0.0 0.00 0.45 0.45 96 1019.9
20260502032355 55 96 0.0 0.0 0.00 0.45 0.45 96 1020.1
20260502031853 55 100 0.0 0.0 0.00 0.45 0.45 96 1019.5
20260502031351 55 102 0.0 0.0 0.00 0.45 0.45 96 1019.5
20260502030849 55 102 0.9 1.7 0.00 0.45 0.45 96 1019.8
20260502030347 55 97 0.0 1.7 0.00 0.45 0.45 96 1020.2
20260502025844 55 102 0.0 0.0 0.00 0.45 0.45 96 1020.5
20260502025342 55 105 0.0 1.7 0.00 0.45 0.45 96 1020.2
20260502024839 55 109 0.0 1.7 0.00 0.45 0.45 96 1020.0
20260502024337 55 101 0.0 0.0 0.00 0.45 0.45 96 1019.7
20260502023835 55 95 0.0 1.7 0.00 0.45 0.45 96 1019.5
20260502023332 55 95 0.0 0.0 0.07 0.45 0.45 96 1019.5
20260502022830 55 100 0.0 0.0 0.07 0.45 0.45 96 1019.9
20260502022326 55 102 0.0 0.0 0.00 0.44 0.44 96 1019.6
20260502021823 55 99 0.0 0.0 0.00 0.44 0.44 96 1019.5
20260502021320 55 97 0.0 0.0 0.00 0.44 0.44 96 1019.4
20260502020817 55 108 0.0 1.7 0.00 0.44 0.44 96 1019.3
20260502020315 55 101 0.0 0.0 0.00 0.44 0.44 96 1019.1
20260502015812 55 99 0.0 0.0 0.05 0.44 0.44 96 1019.3
20260502015309 56 85 0.9 1.7 0.05 0.44 0.44 96 1018.8
20260502014806 56 94 0.9 1.7 0.00 0.43 0.43 96 1018.6
20260502014303 56 97 0.0 0.0 0.00 0.43 0.43 96 1018.8
20260502013759 56 95 0.0 0.0 0.00 0.43 0.43 96 1018.7
20260502013255 56 95 0.0 0.0 0.07 0.43 0.43 96 1018.5
20260502012751 56 99 0.0 0.0 0.07 0.43 0.43 96 1018.7
20260502012249 56 99 0.0 0.0 0.00 0.42 0.42 96 1019.0
20260502011746 56 102 0.0 0.0 0.00 0.42 0.42 96 1019.1
20260502011242 56 96 0.0 0.0 0.00 0.42 0.42 96 1018.7
20260502010740 56 99 0.0 0.0 0.00 0.42 0.42 96 1018.8
20260502010236 56 99 0.0 0.0 0.00 0.42 0.42 96 1018.5
20260502005733 56 95 0.0 1.7 0.00 0.42 0.42 96 1018.6
20260502005231 56 98 0.0 1.7 0.00 0.42 0.42 96 1018.8
20260502004727 56 97 0.0 0.0 0.00 0.42 0.42 95 1018.6
20260502004224 56 94 0.0 0.0 0.00 0.42 0.42 95 1018.7
20260502003722 56 97 0.0 0.0 0.00 0.42 0.42 95 1018.7
20260502003219 57 97 0.0 1.7 0.00 0.42 0.42 95 1018.5
20260502002714 57 95 0.0 0.0 0.00 0.42 0.42 94 1018.7
20260502002213 57 98 0.0 0.0 0.00 0.42 0.42 94 1018.6
20260502001709 57 99 0.0 0.0 0.00 0.42 0.42 94 1018.6
20260502001208 57 97 0.0 0.0 0.00 0.42 0.42 94 1018.6
20260502000704 57 96 0.0 0.0 0.00 0.42 0.42 93 1018.9
20260502000203 57 99 0.0 0.0 0.00 0.42 0.42 93 1018.6
20260501235658 57 97 0.0 3.5 0.00 0.42 0.42 93 1018.7
20260501235154 57 91 0.9 1.7 0.00 0.42 0.42 92 1018.5
20260501234650 57 97 0.0 1.7 0.00 0.42 0.42 92 1018.5
20260501234147 57 97 0.0 1.7 0.00 0.42 0.42 92 1018.5
20260501233645 57 99 0.0 1.7 0.00 0.42 0.42 91 1018.8
20260501233142 57 95 0.0 1.7 0.00 0.42 0.42 90 1018.7
20260501232638 57 96 0.0 1.7 0.00 0.42 0.42 90 1019.0
20260501232136 57 96 0.0 0.0 0.00 0.42 0.42 89 1018.9
20260501231633 57 97 0.0 0.0 0.00 0.42 0.42 88 1018.9
20260501231131 57 87 0.9 1.7 0.00 0.42 0.42 87 1018.9
20260501224715 58 83 1.7 3.5 0.00 0.42 0.42 87 1017.7
20260501224213 58 83 1.7 3.5 0.00 0.42 0.42 87 1017.7
20260501223709 58 95 1.7 1.7 0.00 0.42 0.42 87 1017.8
20260501223206 58 103 0.9 1.7 0.00 0.42 0.42 87 1017.7
20260501222702 58 54 3.5 3.5 0.00 0.42 0.42 87 1017.6
20260501222159 58 59 2.6 5.2 0.00 0.42 0.42 86 1017.9
20260501221656 58 100 1.7 5.2 0.00 0.42 0.42 86 1017.8
20260501221153 58 104 0.9 1.7 0.00 0.42 0.42 86 1017.6
20260501220651 58 97 0.0 0.0 0.00 0.42 0.42 86 1017.6
20260501220148 58 80 1.7 9.6 0.00 0.42 0.42 84 1017.7
20260501215645 58 40 3.5 5.2 0.00 0.42 0.42 85 1017.7
20260501215140 58 94 2.6 3.5 0.00 0.42 0.42 85 1017.4
20260501214635 58 56 2.6 5.2 0.00 0.42 0.42 85 1017.4
20260501214131 58 72 1.7 3.5 0.00 0.42 0.42 86 1017.3
20260501213628 58 91 0.0 1.7 0.00 0.42 0.42 85 1017.4
20260501213124 58 85 0.9 3.5 0.00 0.42 0.42 86 1017.4
20260501212621 58 68 6.1 6.1 0.00 0.42 0.42 85 1017.2
20260501212117 58 89 1.7 6.1 0.00 0.42 0.42 85 1017.0
20260501211614 58 53 6.1 9.6 0.00 0.42 0.42 84 1016.7
20260501211112 58 106 0.9 7.8 0.00 0.42 0.42 86 1016.5
20260501210609 58 28 6.1 13.0 0.00 0.42 0.42 85 1016.5
20260501210105 58 75 1.7 5.2 0.00 0.42 0.42 86 1016.4
20260501205601 58 127 5.2 6.1 0.00 0.42 0.42 86 1016.2
20260501205059 57 68 5.2 11.3 0.00 0.42 0.42 86 1015.7
20260501204555 57 2 3.5 13.0 0.00 0.42 0.42 87 1016.2
20260501204051 57 40 6.1 9.6 0.00 0.42 0.42 87 1016.1
20260501203548 57 129 8.7 11.3 0.00 0.42 0.42 88 1016.2
20260501203046 57 57 7.0 14.8 0.00 0.42 0.42 89 1016.2
20260501202543 56 103 2.6 11.3 0.00 0.42 0.42 90 1016.1
20260501202039 56 48 4.3 9.6 0.00 0.42 0.42 90 1016.2
20260501201536 56 84 1.7 7.8 0.00 0.42 0.42 91 1016.4
20260501201033 55 79 3.5 7.8 0.00 0.42 0.42 92 1016.1
20260501200530 56 89 3.5 6.1 0.00 0.42 0.42 93 1016.6
20260501200027 55 31 8.7 11.3 0.00 0.42 0.42 93 1017.2
20260501195524 55 97 2.6 5.2 0.00 0.42 0.42 94 1017.5
20260501195020 55 91 0.0 3.5 0.00 0.42 0.42 94 1017.9
20260501194516 55 75 2.6 5.2 0.00 0.42 0.42 95 1018.0
20260501194011 55 66 1.7 5.2 0.00 0.42 0.42 96 1018.0
20260501193510 55 101 0.9 1.7 0.00 0.42 0.42 96 1018.2
20260501193008 55 80 0.0 1.7 0.00 0.42 0.42 96 1018.2
20260501192504 55 94 1.7 3.5 0.00 0.42 0.42 96 1018.0
20260501192002 54 85 1.7 5.2 0.00 0.42 0.42 96 1018.0
20260501191459 55 79 3.5 5.2 0.00 0.42 0.42 96 1017.8
20260501190956 55 86 1.7 6.1 0.00 0.42 0.42 96 1018.3
20260501190451 55 79 2.6 6.1 0.00 0.42 0.42 96 1018.3
20260501185947 55 64 3.5 7.8 0.00 0.42 0.42 96 1018.2
20260501185443 54 76 5.2 6.1 0.00 0.42 0.42 96 1018.3
20260501184939 54 84 1.7 7.8 0.00 0.42 0.42 96 1018.6
20260501184436 54 71 1.7 6.1 0.05 0.42 0.42 96 1018.6